Tracking 28126 objects as of 1-Oct-2023
HD Live streaming from Space Station
objects crossing your sky now

STARLINK-4581

Track STARLINK-4581 now!
10-day predictions
STARLINK-4581 is classified as:


NORAD ID: 53576
Int'l Code: 2022-101BB
Perigee: 546.0 km
Apogee: 547.8 km
Inclination: 53.2 °
Period: 95.4 minutes
Semi major axis: 6917 km
RCS: Unknown
Launch date: August 19, 2022
Source: United States (US)
Launch site: AIR FORCE EASTERN TEST RANGE (AFETR)
Your satellite tracking list
Your tracking list is empty




NASA's NSSDC Master Catalog

Two Line Element Set (TLE):
1 53576U 22101BB  23274.52679031 -.00003758  00000-0 -21809-3 0  9991
2 53576  53.2160  90.0158 0001323  85.3305 274.7839 15.08845582 62881
Source of the keplerian elements: AFSPC